GW5488 Weather Reports


time (UTC)temp
C
wind
direction
speed
KPH
gust
KPH
rain 1hr
cm
rain 24hr
cm
rain mn
cm
humidity
%
barometer
mb
20260503053303 1 273 3.2 8.0 0.00 0.36 0.00 90 1010.3
20260503052305 1 262 4.8 8.0 0.00 0.36 0.00 89 1010.4
20260503051304 1 264 3.2 8.0 0.00 0.36 0.00 89 1010.4
20260503050303 1 269 1.6 4.8 0.00 0.36 0.00 89 1010.4
20260503045803 1 272 0.0 1.6 0.00 0.36 0.00 89 1010.4
20260503045305 1 272 0.0 0.0 0.00 0.36 0.00 89 1010.4
20260503044804 1 272 0.0 1.6 0.00 0.36 0.00 89 1010.3
20260503044304 1 272 0.0 3.2 0.00 0.36 0.00 89 1010.3
20260503043804 1 274 1.6 3.2 0.00 0.36 0.00 89 1010.3
20260503042804 1 264 3.2 4.8 0.00 0.36 0.00 88 1010.3
20260503042305 1 266 1.6 4.8 0.00 0.36 0.00 88 1010.3
20260503041804 1 269 3.2 4.8 0.00 0.36 0.00 88 1010.3
20260503041304 1 267 3.2 8.0 0.00 0.36 0.00 88 1010.2
20260503040804 1 272 3.2 9.7 0.00 0.36 0.00 88 1010.2
20260503035803 1 277 3.2 4.8 0.00 0.36 0.00 88 1010.0
20260503035305 1 272 3.2 4.8 0.00 0.36 0.00 88 1010.0
20260503034803 1 271 1.6 4.8 0.00 0.36 0.00 88 1009.8
20260503034303 1 270 1.6 4.8 0.00 0.36 0.00 88 1009.9
20260503033303 1 271 3.2 8.0 0.00 0.36 0.00 88 1009.9
20260503032803 1 275 3.2 4.8 0.00 0.36 0.00 88 1009.8
20260503032304 1 268 1.6 4.8 0.00 0.36 0.00 88 1009.8
20260503031804 1 273 1.6 4.8 0.00 0.36 0.00 89 1009.9
20260503031304 1 272 1.6 4.8 0.00 0.36 0.00 89 1009.9
20260503030804 1 279 1.6 4.8 0.00 0.36 0.00 88 1009.9
20260503030303 1 271 1.6 4.8 0.00 0.36 0.00 88 1009.9
20260503025305 1 273 1.6 4.8 0.00 0.36 0.00 89 1010.0
20260503024804 1 271 3.2 4.8 0.00 0.36 0.00 88 1009.9
20260503024304 1 265 3.2 4.8 0.00 0.36 0.00 88 1009.9
20260503023803 1 271 3.2 4.8 0.00 0.36 0.00 88 1009.9
20260503023303 1 273 1.6 4.8 0.00 0.36 0.00 88 1009.8
20260503022803 1 273 0.0 4.8 0.00 0.36 0.00 88 1009.7
20260503022305 1 270 1.6 4.8 0.00 0.36 0.00 88 1009.7
20260503021303 1 271 1.6 4.8 0.00 0.36 0.00 89 1009.8
20260503020804 1 275 3.2 4.8 0.00 0.36 0.00 88 1009.8
20260503020303 1 260 3.2 8.0 0.00 0.36 0.00 88 1009.9
20260503015803 1 269 3.2 8.0 0.00 0.36 0.00 89 1010.0
20260503015305 1 268 3.2 8.0 0.00 0.36 0.00 88 1010.1
20260503014304 1 269 3.2 8.0 0.00 0.36 0.00 88 1010.1
20260503013804 1 270 3.2 4.8 0.00 0.36 0.00 89 1010.2
20260503012804 1 268 3.2 4.8 0.00 0.36 0.00 89 1010.2
20260503012305 1 270 1.6 4.8 0.00 0.36 0.00 89 1010.3
20260503011803 1 276 0.0 4.8 0.00 0.36 0.00 89 1010.3
20260503011303 1 278 3.2 4.8 0.00 0.36 0.00 89 1010.3
20260503010804 1 268 1.6 4.8 0.00 0.36 0.00 89 1010.3
20260503005804 1 271 1.6 3.2 0.00 0.38 0.00 89 1010.3
20260503005304 1 271 0.0 1.6 0.00 0.38 0.00 89 1010.4
20260503004804 1 271 0.0 1.6 0.00 0.38 0.00 89 1010.4
20260503004303 1 271 0.0 1.6 0.00 0.38 0.00 88 1010.5
20260503003804 1 272 1.6 4.8 0.00 0.38 0.00 88 1010.7
20260503003304 1 266 4.8 8.0 0.00 0.38 0.00 89 1010.8
20260503002804 1 268 1.6 4.8 0.00 0.38 0.00 88 1010.8
20260503002305 1 277 1.6 8.0 0.00 0.38 0.00 89 1010.8
20260503001803 1 275 1.6 4.8 0.00 0.38 0.00 89 1010.8
20260503001303 1 266 1.6 4.8 0.00 0.38 0.00 89 1010.8
20260503000804 1 266 1.6 4.8 0.00 0.38 0.00 89 1010.6
20260503000304 1 275 1.6 4.8 0.00 0.38 0.00 89 1010.6
20260502235804 1 270 0.0 3.2 0.00 0.38 0.00 88 1010.7
20260502234804 1 264 3.2 4.8 0.00 0.38 0.00 89 1010.7
20260502234304 1 263 3.2 4.8 0.00 0.38 0.00 88 1010.7
20260502233303 1 270 0.0 4.8 0.00 0.38 0.00 88 1010.8
20260502232803 1 271 3.2 8.0 0.00 0.38 0.00 88 1011.0
20260502232305 1 275 3.2 4.8 0.00 0.38 0.00 88 1010.9
20260502231804 1 271 3.2 4.8 0.00 0.38 0.00 88 1011.0
20260502231304 1 270 1.6 4.8 0.00 0.38 0.00 88 1010.8
20260502230303 1 270 3.2 4.8 0.00 0.41 0.00 88 1010.9
20260502224803 1 279 1.6 4.8 0.00 0.41 0.00 88 1010.9
20260502223803 1 264 1.6 4.8 0.00 0.41 0.00 88 1010.9
20260502223304 1 266 1.6 8.0 0.00 0.41 0.00 88 1010.9
20260502222804 1 267 3.2 9.7 0.00 0.41 0.00 88 1010.9
20260502222305 1 273 3.2 9.7 0.00 0.41 0.00 88 1010.9
20260502221304 1 269 4.8 9.7 0.00 0.41 0.00 88 1010.9
20260502220804 1 266 3.2 8.0 0.00 0.41 0.00 88 1010.9
20260502220304 1 269 3.2 4.8 0.00 0.41 0.00 88 1010.8
20260502215804 1 275 1.6 4.8 0.00 0.41 0.43 88 1010.9
20260502215305 1 274 1.6 4.8 0.00 0.41 0.43 88 1010.9
20260502214304 1 276 3.2 9.7 0.00 0.41 0.43 88 1010.8
20260502213803 1 270 3.2 8.0 0.00 0.41 0.43 88 1010.8
20260502213304 1 275 4.8 9.7 0.00 0.41 0.43 87 1010.8
20260502212803 1 263 3.2 8.0 0.00 0.41 0.43 87 1010.8
20260502212305 1 269 4.8 9.7 0.00 0.41 0.43 87 1010.8
20260502211804 1 266 4.8 9.7 0.00 0.41 0.43 87 1010.8
20260502210804 1 264 3.2 11.3 0.00 0.41 0.43 87 1010.9
20260502210304 1 271 3.2 9.7 0.00 0.41 0.43 87 1010.9
20260502205804 1 264 3.2 8.0 0.00 0.41 0.43 87 1010.9
20260502205305 1 264 3.2 8.0 0.00 0.41 0.43 87 1010.9
20260502204804 1 268 1.6 8.0 0.00 0.41 0.43 88 1010.9
20260502203804 1 262 4.8 14.5 0.00 0.41 0.43 88 1010.9
20260502203303 1 274 4.8 12.9 0.00 0.41 0.43 88 1011.0
20260502202804 1 256 8.0 16.1 0.00 0.41 0.43 88 1011.0
20260502202305 2 265 4.8 8.0 0.00 0.41 0.43 88 1011.0
20260502201804 1 273 1.6 4.8 0.00 0.41 0.43 89 1011.1
20260502201303 1 268 4.8 19.3 0.00 0.41 0.43 88 1011.0
20260502200803 1 270 3.2 11.3 0.00 0.41 0.43 88 1010.9
20260502195803 2 267 4.8 12.9 0.00 0.41 0.43 88 1011.0
20260502195305 2 282 4.8 16.1 0.00 0.41 0.43 87 1010.9
20260502194304 2 262 3.2 14.5 0.00 0.41 0.43 88 1010.9
20260502193804 2 272 6.4 16.1 0.00 0.41 0.43 87 1010.8
20260502193303 2 276 3.2 12.9 0.00 0.41 0.43 88 1010.7
20260502192803 2 263 4.8 14.5 0.00 0.41 0.43 88 1010.6
20260502192305 2 271 4.8 14.5 0.00 0.41 0.43 87 1010.6
20260502191804 2 269 6.4 12.9 0.00 0.41 0.43 87 1010.6
20260502191304 2 272 3.2 9.7 0.00 0.41 0.43 87 1010.6
20260502190803 2 275 4.8 12.9 0.00 0.41 0.43 87 1010.6
20260502185804 2 265 8.0 16.1 0.00 0.41 0.43 86 1010.6
20260502185305 2 248 6.4 19.3 0.00 0.41 0.43 86 1010.5
20260502184804 2 255 6.4 11.3 0.00 0.41 0.43 87 1010.6
20260502184304 2 260 8.0 14.5 0.00 0.41 0.43 86 1010.4
20260502183304 2 263 8.0 19.3 0.00 0.41 0.43 87 1010.4
20260502182803 2 255 8.0 16.1 0.00 0.41 0.43 87 1010.5
20260502182305 2 278 9.7 19.3 0.00 0.41 0.43 88 1010.5
20260502181804 2 261 6.4 14.5 0.00 0.41 0.43 89 1010.4
20260502181304 2 266 8.0 19.3 0.00 0.41 0.43 88 1010.4
20260502180804 2 254 11.3 19.3 0.00 0.41 0.43 88 1010.3
20260502180304 2 265 9.7 16.1 0.00 0.41 0.43 89 1010.3
20260502170303 2 268 6.4 14.5 0.00 0.41 0.43 91 1010.2
20260502164303 2 263 8.0 16.1 0.00 0.41 0.43 90 1010.2
20260502163304 2 263 8.0 16.1 0.00 0.41 0.43 90 1010.2
20260502162804 2 268 9.7 19.3 0.00 0.41 0.43 90 1010.3
20260502162304 2 264 4.8 12.9 0.00 0.41 0.43 90 1010.3
20260502161803 2 272 1.6 8.0 0.00 0.41 0.43 90 1010.3
20260502161303 2 278 3.2 11.3 0.00 0.41 0.43 91 1010.3
20260502160804 2 279 4.8 14.5 0.00 0.41 0.43 90 1010.3
20260502160304 2 284 6.4 14.5 0.00 0.41 0.43 90 1010.3
20260502151804 2 275 3.2 16.1 0.00 0.41 0.43 91 1010.2
20260502151304 2 274 4.8 20.9 0.00 0.41 0.43 91 1010.2
20260502150804 2 263 11.3 19.3 0.00 0.41 0.43 90 1010.2
20260502150304 2 269 9.7 16.1 0.00 0.41 0.43 90 1010.2
20260502130304 3 272 9.7 19.3 0.03 0.38 0.41 91 1009.7
20260502123804 3 267 4.8 14.5 0.03 0.38 0.41 91 1009.6
20260502123304 4 268 8.0 14.5 0.03 0.38 0.41 91 1009.5
20260502122804 4 276 4.8 14.5 0.03 0.38 0.41 91 1009.5
20260502122306 4 268 6.4 19.3 0.05 0.38 0.41 91 1009.5
20260502121804 5 272 6.4 12.9 0.03 0.36 0.38 91 1009.5
20260502121304 5 274 4.8 14.5 0.03 0.36 0.38 92 1009.5
20260502120803 5 263 8.0 16.1 0.03 0.36 0.38 92 1009.5
20260502120304 5 278 4.8 14.5 0.03 0.36 0.38 92 1009.4
20260502115804 5 271 8.0 19.3 0.05 0.36 0.38 92 1009.3
20260502115306 5 270 3.2 16.1 0.05 0.36 0.38 92 1009.3
20260502114804 5 271 4.8 11.3 0.05 0.36 0.38 91 1009.3
20260502114304 6 279 3.2 11.3 0.05 0.36 0.38 91 1009.2
20260502113304 6 272 1.6 3.2 0.08 0.36 0.38 91 1009.2
20260502111304 6 278 0.0 4.8 0.05 0.36 0.36 91 1009.1
20260502110804 6 278 1.6 3.2 0.05 0.36 0.36 91 1009.1
20260502110304 6 269 1.6 4.8 0.05 0.36 0.36 91 1009.0
20260502105803 6 277 0.0 1.6 0.05 0.36 0.36 91 1008.9
20260502105306 6 277 1.6 4.8 0.03 0.33 0.33 91 1008.9
20260502104804 6 266 1.6 3.2 0.03 0.33 0.33 91 1009.0
20260502104304 6 264 3.2 4.8 0.03 0.33 0.33 91 1009.0
20260502103804 6 270 1.6 4.8 0.03 0.30 0.30 90 1008.9
20260502103304 6 275 0.0 3.2 0.03 0.30 0.30 90 1008.9
20260502102804 6 267 3.2 4.8 0.03 0.30 0.30 90 1008.9
20260502102306 6 266 0.0 4.8 0.05 0.30 0.30 89 1008.8
20260502101804 6 267 0.0 3.2 0.05 0.30 0.30 90 1008.7
20260502101303 6 272 3.2 4.8 0.05 0.30 0.30 90 1008.7
20260502100803 6 268 0.0 3.2 0.05 0.30 0.30 91 1008.7
20260502100303 6 263 1.6 4.8 0.05 0.30 0.30 90 1008.6
20260502090803 6 250 3.2 4.8 0.08 0.25 0.25 91 1008.9
20260502090304 6 264 1.6 4.8 0.10 0.25 0.25 91 1008.9
20260502071304 6 273 1.6 4.8 0.03 0.08 0.08 87 1008.6
20260502070803 6 264 0.0 3.2 0.03 0.08 0.08 87 1008.7
20260502065306 6 262 1.6 4.8 0.03 0.08 0.08 85 1008.6
20260502064804 6 267 1.6 4.8 0.00 0.05 0.05 85 1008.6
20260502064304 6 268 0.0 3.2 0.00 0.05 0.05 85 1008.4
20260502063803 6 254 1.6 4.8 0.00 0.05 0.05 85 1008.4
20260502062803 6 267 0.0 1.6 0.00 0.05 0.05 83 1008.3
20260502061304 6 272 1.6 3.2 0.00 0.05 0.05 82 1008.2
20260502060803 7 272 1.6 4.8 0.00 0.05 0.05 81 1008.2
20260502060304 7 270 3.2 4.8 0.00 0.05 0.05 80 1008.0
20260502055803 7 270 1.6 3.2 0.00 0.05 0.05 79 1008.1
20260502055305 7 270 3.2 4.8 0.00 0.05 0.05 79 1008.1
20260502054804 7 269 0.0 3.2 0.00 0.05 0.05 79 1008.1
20260502054304 7 262 1.6 12.9 0.00 0.05 0.05 77 1008.1
20260502053804 7 255 4.8 11.3 0.00 0.05 0.05 76 1008.1